EW7837 Weather Reports


time (UTC)temp
C
wind
direction
speed
KPH
gust
KPH
rain 1hr
cm
rain 24hr
cm
rain mn
cm
humidity
%
barometer
mb
20260906213026 33 288 0.0 0.0 0.00 0.00 0.00 55 1007.2
20260906211535 32 288 0.0 0.0 0.00 0.00 0.00 57 1007.0
20260906210018 32 288 0.0 0.0 0.00 0.00 0.00 59 1007.2
20260906204526 32 288 0.0 0.0 0.00 0.00 0.00 58 1007.7
20260906203013 31 288 0.0 0.0 0.00 0.00 0.00 61 1007.9
20260906201510 31 288 0.0 0.0 0.00 0.00 0.00 60 1008.1
20260906200005 30 288 0.0 0.0 0.00 0.00 0.00 63 1008.7
20260906194501 29 288 0.0 0.0 0.00 0.00 0.00 63 1009.0
20260906193109 28 288 0.0 0.0 0.00 0.00 0.00 64 1008.9
20260906191602 28 288 0.0 0.0 0.00 0.00 0.00 63 1008.8
20260906190030 28 288 0.0 0.0 0.00 0.00 0.00 64 1008.9
20260906184525 28 288 0.0 0.0 0.00 0.00 0.00 61 1009.1
20260906183020 28 288 0.0 0.0 0.00 0.00 0.00 62 1009.3
20260906181536 28 288 0.0 0.0 0.00 0.00 0.00 64 1009.7
20260906180020 27 250 0.0 0.0 0.00 0.00 0.00 65 1009.7
20260906174511 27 250 0.0 0.0 0.00 0.00 0.00 65 1009.5
20260906173009 27 250 0.0 0.0 0.00 0.00 0.00 65 1009.0
20260906171508 27 250 0.0 0.0 0.00 0.00 0.00 66 1008.9
20260906170008 27 250 0.0 0.0 0.00 0.00 0.00 68 1009.0
20260906164507 26 250 0.0 0.0 0.00 0.00 0.00 68 1009.1
20260906163036 26 250 0.0 0.0 0.00 0.00 0.00 72 1009.0
20260906161532 25 250 0.0 0.0 0.00 0.00 0.00 72 1009.0
20260906160029 25 250 0.0 0.0 0.00 0.00 0.00 73 1008.8
20260906154537 24 250 0.0 0.0 0.00 0.00 0.00 77 1008.8
20260906153024 24 250 0.0 0.0 0.00 0.00 0.00 79 1009.1
20260906151524 23 250 0.0 0.0 0.00 0.00 0.00 80 1009.2
20260906150019 23 250 0.0 0.0 0.00 0.00 0.00 80 1009.0
20260906144517 23 250 0.0 0.0 0.00 0.00 0.00 79 1008.6
20260906143017 23 250 0.0 0.0 0.00 0.00 0.00 76 1008.4
20260906141510 23 250 0.0 0.0 0.00 0.00 0.00 75 1008.2
20260906140042 23 250 0.0 0.0 0.00 0.00 0.00 76 1008.3
20260906134539 23 250 0.0 0.0 0.00 0.00 0.00 75 1008.0
20260906133044 23 250 0.0 0.0 0.00 0.00 0.00 74 1007.9
20260906131538 23 250 0.0 0.0 0.00 0.00 0.00 75 1007.4
20260906130033 23 250 0.0 0.0 0.00 0.00 0.00 73 1007.5
20260906124533 23 250 0.0 0.0 0.00 0.00 0.00 74 1007.5
20260906123029 23 250 0.0 0.0 0.00 0.00 0.00 70 1007.8
20260906121526 23 250 0.0 0.0 0.00 0.00 0.00 71 1007.9
20260906120025 23 250 0.0 0.0 0.00 0.00 0.00 73 1007.8
20260906114541 23 250 0.0 0.0 0.00 0.00 0.00 73 1007.5
20260906113022 23 250 0.0 0.0 0.00 0.00 0.00 73 1007.5
20260906111528 23 250 0.0 0.0 0.00 0.00 0.00 73 1007.5
20260906110020 23 250 0.0 0.0 0.00 0.00 0.00 72 1007.9
20260906104528 23 250 0.0 0.0 0.00 0.00 0.00 72 1007.9
20260906103016 23 250 0.0 0.0 0.00 0.00 0.00 69 1008.1
20260906101515 23 250 0.0 0.0 0.00 0.00 0.00 71 1007.8
20260906100012 24 250 0.0 0.0 0.00 0.00 0.00 70 1007.8
20260906094532 24 250 0.0 0.0 0.00 0.00 0.00 70 1007.8
20260906093133 24 250 0.0 0.0 0.00 0.00 0.00 70 1007.8
20260906091540 24 250 0.0 0.0 0.00 0.00 0.00 69 1008.1
20260906090038 24 250 0.0 0.0 0.00 0.00 0.00 68 1008.3
20260906084535 24 250 0.0 0.0 0.00 0.00 0.00 67 1008.4
20260906083044 24 250 0.0 0.0 0.00 0.00 0.00 66 1008.0
20260906081537 24 250 0.0 0.0 0.00 0.00 0.00 65 1008.2
20260906080039 24 250 0.0 0.0 0.00 0.00 0.00 65 1008.4
20260906074559 24 250 0.0 0.0 0.00 0.00 0.00 63 1008.4
20260906073058 24 250 0.0 0.0 0.00 0.00 0.00 61 1008.9
20260906071556 25 250 0.0 0.0 0.00 0.00 0.00 59 1008.9
20260906070056 25 250 0.0 0.0 0.00 0.00 0.00 56 1008.6
20260906064555 25 250 0.0 0.0 0.00 0.00 0.00 55 1008.4
20260906063055 24 250 0.0 0.0 0.00 0.00 0.00 56 1008.4
20260906061552 25 250 0.0 0.0 0.00 0.00 0.00 54 1008.5
20260906060052 25 250 0.0 0.0 0.00 0.00 0.00 52 1008.4
20260906054551 25 250 0.0 0.0 0.00 0.00 0.00 52 1008.7
20260906053051 25 250 0.0 0.0 0.00 0.00 0.00 51 1008.9
20260906051558 25 250 0.0 0.0 0.00 0.00 0.00 52 1008.9
20260906050049 25 250 0.0 0.0 0.00 0.00 0.00 51 1008.9
20260906044549 25 250 0.0 0.0 0.00 0.00 0.00 53 1008.4
20260906043042 25 250 0.0 0.0 0.00 0.00 0.00 54 1008.4
20260906041509 26 250 0.0 0.0 0.00 0.00 0.00 56 1008.4
20260906040015 26 250 0.0 0.0 0.00 0.00 0.00 62 1008.3
20260906034533 26 250 0.0 0.0 0.00 0.00 0.00 64 1008.3
20260906033041 27 250 0.0 0.0 0.00 0.00 0.00 65 1008.1
20260906031535 27 250 0.0 0.0 0.00 0.00 0.00 63 1008.2
20260906030023 27 250 0.0 0.0 0.00 0.00 0.00 61 1008.0
20260906024539 27 250 0.0 0.0 0.00 0.00 0.00 60 1008.0
20260906023023 28 250 0.0 0.0 0.00 0.00 0.00 58 1007.7
20260906021518 28 250 0.0 0.0 0.00 0.00 0.00 56 1007.7
20260906020016 28 250 0.0 0.0 0.00 0.00 0.00 53 1007.6
20260906014524 29 250 0.0 0.0 0.00 0.00 0.00 49 1007.8
20260906013034 30 250 0.0 0.0 0.00 0.00 0.00 41 1007.9
20260906011511 31 250 0.0 0.0 0.00 0.00 0.00 35 1007.9
20260906010010 31 250 0.0 0.0 0.00 0.00 0.00 33 1007.8
20260906004509 31 250 0.0 0.0 0.00 0.00 0.00 33 1008.1
20260906003010 31 246 0.0 0.0 0.00 0.00 0.00 32 1008.1
20260906001541 31 250 0.0 0.0 0.00 0.00 0.00 35 1008.1
20260906000042 31 250 0.0 0.0 0.00 0.00 0.00 39 1007.8
20260905234527 32 250 0.0 0.0 0.00 0.00 0.00 42 1007.9
20260905233027 31 267 0.0 0.0 0.00 0.00 0.00 44 1007.9
20260905231527 32 257 0.0 0.0 0.00 0.00 0.00 42 1007.9
20260905230026 32 257 0.0 0.0 0.00 0.00 0.00 41 1007.9
20260905224505 32 254 0.0 0.0 0.00 0.00 0.00 38 1008.3
20260905223003 32 258 0.0 0.0 0.00 0.00 0.00 37 1008.4
20260905221616 32 262 0.0 0.0 0.00 0.00 0.00 35 1008.5
20260905220059 31 265 0.0 0.0 0.00 0.00 0.00 35 1008.4
20260905214601 31 240 0.0 0.0 0.00 0.00 0.00 37 1008.6